Location: Tabor
(49.4170°N, 14.6670°E)
Time: 20:39:39
(UTC+02:00)

ISS - Visible Passes

Search period start: 16 July 2018 00:00
Search period end: 26 July 2018 00:00
Orbit: 402 x 408 km, 51.6° (Epoch: 17 July)

Date Brightness Start Highest point End Pass type
(mag) Time Alt. Az. Time Alt. Az. Time Alt. Az.
16 Jul -3.0 00:59:18 38° E 00:59:18 38° E 01:01:34 10° ENE visible
16 Jul -3.3 02:31:56 12° W 02:34:51 59° N 02:38:08 10° ENE visible
16 Jul -3.5 04:08:15 10° WNW 04:11:34 72° NNE 04:14:51 10° E visible
17 Jul -1.6 00:08:35 16° E 00:08:35 16° E 00:09:24 10° E visible
17 Jul -3.6 01:41:12 29° W 01:42:43 68° NNW 01:46:00 10° ENE visible
17 Jul -3.3 03:16:09 10° WNW 03:19:26 60° N 03:22:42 10° E visible
18 Jul -3.9 00:50:12 66° WSW 00:50:36 87° NNW 00:53:54 10° ENE visible
18 Jul -3.1 02:24:01 10° WNW 02:27:17 56° N 02:30:32 10° E visible
18 Jul -3.9 04:00:36 10° WNW 04:03:54 78° SSW 04:07:11 10° ESE visible
18 Jul -4.0 23:58:11 61° SSW 23:58:31 67° SSE 00:01:48 10° ENE visible
19 Jul -3.2 01:31:51 10° W 01:35:05 57° N 01:38:21 10° ENE visible
19 Jul -3.7 03:08:29 10° WNW 03:11:47 79° NNE 03:15:05 10° ESE visible
19 Jul -3.6 23:03:19 10° SW 23:06:28 44° SSE 23:09:37 10° ENE visible
20 Jul -3.4 00:39:38 10° W 00:42:55 64° N 00:46:11 10° ENE visible
20 Jul -3.4 02:16:21 10° WNW 02:19:38 64° N 02:22:54 10° E visible
20 Jul -3.5 03:52:55 10° WNW 03:56:05 44° SSW 03:59:14 10° SE visible
20 Jul -2.9 22:11:36 10° SSW 22:14:28 28° SE 22:17:20 10° E visible
20 Jul -3.8 23:47:27 10° WSW 23:50:45 79° NNW 23:54:02 10° ENE visible
21 Jul -3.2 01:24:11 10° WNW 01:27:26 57° N 01:30:42 10° E visible
21 Jul -4.0 03:00:44 10° WNW 03:04:01 68° SSW 03:07:18 10° ESE visible
21 Jul -4.0 22:55:20 10° WSW 22:58:36 77° SSE 23:01:54 10° ENE visible
22 Jul -3.2 00:31:58 10° W 00:35:13 56° N 00:38:29 10° ENE visible
22 Jul -3.9 02:08:35 10° WNW 02:11:54 87° NNE 02:15:11 10° ESE visible
22 Jul -2.7 03:45:22 10° W 03:48:06 24° SW 03:50:50 10° SSE visible
22 Jul -3.7 22:03:18 10° SW 22:06:30 52° SSE 22:09:43 10° ENE visible
22 Jul -3.3 23:39:44 10° W 23:43:00 60° N 23:46:16 10° ENE visible
23 Jul -3.6 01:16:25 10° WNW 01:19:42 68° NNE 01:20:45 39° E visible
23 Jul -1.3 02:53:01 10° W 02:53:14 11° W 02:53:14 11° W visible
23 Jul -3.6 22:47:30 10° W 22:50:47 72° NNW 22:54:04 10° ENE visible
24 Jul -3.3 00:24:13 10° WNW 00:27:29 58° N 00:29:02 27° ENE visible
24 Jul -1.6 02:00:46 10° WNW 02:01:37 17° WNW 02:01:37 17° WNW visible
24 Jul -3.9 21:55:18 10° WSW 21:58:35 87° SSE 22:01:53 10° ENE visible
24 Jul -3.1 23:31:59 10° W 23:35:14 55° N 23:38:00 13° ENE visible
25 Jul -2.6 01:08:34 10° WNW 01:10:37 35° WNW 01:10:37 35° WNW visible
25 Jul -3.2 22:39:43 10° W 22:42:58 58° N 22:46:14 10° ENE visible
